La Plata, MO

6:37 PM CDT on August 28, 2016 (GMT -0500)
Kirksville Regional

Weather History for KIRK - November, 2010

Change the Weather History Date:

Wednesday, November 17, 2010

  Actual Average Record
Temperature  
Mean Temperature 34 °F 40 °F  
Max Temperature 42 °F 50 °F 76 °F (1941)
Min Temperature 25 °F 30 °F 1 °F (1959)
Degree Days  
Heating Degree Days 31 25  
Month to date heating degree days 319 363  
Since 1 July heating degree days 679 852  
Cooling Degree Days 0 0  
Month to date cooling degree days 0 0  
Year to date cooling degree days 1143 939  
Moisture  
Dew Point 31 °F    
Average Humidity 85    
Maximum Humidity 100    
Minimum Humidity 70    
Precipitation  
Precipitation 0.00 in 0.08 in 3.25 in (1928)
Month to date precipitation 0.74 1.75  
Year to date precipitation 50.55 36.59  
Sea Level Pressure  
Sea Level Pressure 30.13 in    
Wind  
Wind Speed 6 mph (NNW)    
Max Wind Speed 13 mph    
Max Gust Speed 17 mph    
Visibility 8 miles    
Events      
T = Trace of Precipitation, MM = Missing Value Source: NWS Daily Summary

Daily Weather History Graph

Daily Weather History Graph

Search for Another Location

Airport or City:

Trip Planner

Search our weather history database for the weather conditions in past years. The results will help you decide how hot, cold, wet, or windy it might be!

Date:

Astronomy

Nov. 17, 2010 Rise Set
Actual Time 6:57 AM CST 4:52 PM CST
Civil Twilight 6:28 AM CST 5:21 PM CST
Nautical Twilight 5:55 AM CST 5:54 PM CST
Astronomical Twilight 5:23 AM CST 6:26 PM CST
Moon 2:24 PM CST (11/17) 2:57 AM CST (11/17)
Length of Visible Light 10h 52m
Length of Day
9h 54m
Waxing Gibbous, 85% of the Moon is Illuminated
Nov 17
Waxing Gibbous
Nov 21
Full
Nov 28
Last Quarter
Dec 5
New
Dec 13
First Quarter

Hourly Weather History & Observations

Time (CST) Temp. Windchill Dew Point Humidity Pressure Visibility Wind Dir Wind Speed Gust Speed Precip Events Conditions
12:55 AM 30.0 °F 25.2 °F 28.0 °F 92% 29.89 in 10.0 mi NW 4.6 mph - N/A   Clear
1:55 AM 28.9 °F 25.2 °F 28.0 °F 96% 29.92 in 8.0 mi NW 3.5 mph - N/A   Partly Cloudy
2:55 AM 30.9 °F - 28.9 °F 92% 29.94 in 6.0 mi Calm Calm - N/A   Clear
3:55 AM 26.1 °F - 25.0 °F 96% 29.96 in 2.0 mi Calm Calm - N/A   Clear
4:11 AM 28.4 °F 24.6 °F 28.4 °F 100% 29.94 in 3.0 mi NNW 3.5 mph - N/A   Clear
4:55 AM 25.0 °F 20.7 °F 24.1 °F 96% 30.00 in 6.0 mi NW 3.5 mph - N/A   Clear
5:55 AM 30.9 °F 27.5 °F 28.9 °F 92% 30.02 in 6.0 mi NNW 3.5 mph - 0.01 in   Clear
6:28 AM 30.2 °F 21.9 °F 30.2 °F 100% 30.01 in 6.0 mi North 9.2 mph - N/A   Scattered Clouds
6:36 AM 32.0 °F 24.2 °F 30.2 °F 93% 30.01 in 5.0 mi North 9.2 mph - N/A   Mostly Cloudy
6:55 AM 32.0 °F 25.6 °F 32.0 °F 100% 30.06 in 4.0 mi NNW 6.9 mph - N/A   Overcast
7:55 AM 34.0 °F 27.2 °F 33.1 °F 96% 30.10 in 4.0 mi North 8.1 mph - N/A   Overcast
8:55 AM 36.0 °F 31.1 °F 35.1 °F 97% 30.14 in 6.0 mi NW 5.8 mph - N/A   Overcast
9:55 AM 37.0 °F 31.6 °F 34.0 °F 89% 30.17 in 7.0 mi NNW 6.9 mph - 0.01 in   Overcast
10:55 AM 37.9 °F 32.7 °F 35.1 °F 89% 30.18 in 8.0 mi NNW 6.9 mph - N/A   Overcast
11:19 AM 39.2 °F 33.6 °F 35.6 °F 87% 30.15 in 9.0 mi NNW 8.1 mph - N/A   Overcast
11:55 AM 39.9 °F 34.5 °F 34.0 °F 79% 30.19 in 10.0 mi NNW 8.1 mph - N/A   Overcast
12:18 PM 42.8 °F 37.0 °F 33.8 °F 70% 30.15 in 10.0 mi North 10.4 mph - N/A   Overcast
12:55 PM 41.0 °F 35.2 °F 34.0 °F 76% 30.18 in 10.0 mi NNW 9.2 mph - N/A   Overcast
1:55 PM 42.1 °F 37.7 °F 34.0 °F 73% 30.18 in 10.0 mi NNW 6.9 mph - N/A   Overcast
2:55 PM 42.1 °F 36.6 °F 34.0 °F 73% 30.17 in 10.0 mi NNW 9.2 mph - N/A   Overcast
3:55 PM 42.1 °F 38.4 °F 33.1 °F 70% 30.19 in 10.0 mi North 5.8 mph - N/A   Overcast
4:55 PM 41.0 °F 35.8 °F 33.1 °F 73% 30.22 in 10.0 mi North 8.1 mph - N/A   Overcast
5:32 PM 41.0 °F 38.0 °F 33.8 °F 76% 30.19 in 10.0 mi NNW 4.6 mph - N/A   Overcast
5:55 PM 41.0 °F 36.4 °F 32.0 °F 70% 30.23 in 10.0 mi North 6.9 mph - N/A   Overcast
6:55 PM 39.9 °F 35.1 °F 32.0 °F 73% 30.26 in 10.0 mi NNW 6.9 mph - N/A   Overcast
7:55 PM 39.0 °F 34.0 °F 30.9 °F 73% 30.26 in 10.0 mi North 6.9 mph - N/A   Overcast
8:55 PM 37.9 °F 32.1 °F 30.0 °F 73% 30.28 in 10.0 mi NNW 8.1 mph - N/A   Overcast
9:55 PM 34.0 °F 28.0 °F 28.9 °F 82% 30.30 in 10.0 mi NNW 6.9 mph - N/A   Scattered Clouds
10:55 PM 37.0 °F 31.0 °F 30.0 °F 76% 30.31 in 10.0 mi NNW 8.1 mph - N/A   Overcast
11:55 PM 37.0 °F 30.4 °F 30.0 °F 76% 30.33 in 10.0 mi NNW 9.2 mph 17.3 mph N/A   Overcast